Location: D�derode
(51.8092°N, 10.1065°E)
Time: 20:32:25
(UTC+00:00)

Cosmos 2322 Rocket - Pass Details

Date: 01 December 2020
Orbit: 834 x 849 km, 71.0° (Epoch: 24 January)

Event Time Altitude Azimuth Distance (km) Brightness Sun altitude
Rises 16:48:21 0° 293° (WNW) 3,410 6.2 -14.0°
Reaches altitude 10° 16:52:39 10° 324° (NW) 2,473 4.9 -14.7°
Maximum altitude 16:54:46 12° 346° (NNW) 2,332 4.5 -15.0°
Drops below altitude 10° 16:56:52 10° 8° (N) 2,471 4.4 -15.3°
Enters shadow 16:58:22 - 21° (NNE) 2,720 4.5 -15.5°
